Temperature
12 12 12 12 12 12 12 12 12 11 11 11 11 11 11 11 11 11 11 11 11 11 11 11 11 11 11 11 11 11 11 11 11 11 11 12 12 12 12 12 12 12 12
12 12 12 12 12 12 12 11 11 11 11 11 10 10 10 10 10 10 10 10 10 10 11 11 11 11 11 11 10 11 11 11 11 11 11 11 11 11 11 11 12 12 12
12 12 12 11 11 11 11 11 11 11 11 10 10 10 10 10 10 10 10 10 10 10 10 10 10 10 10 10 10 10 10 10 10 10 10 10 10 11 11 11 11 11 11
12 11 11 11 11 11 11 11 10 10 10 10 10 10 10 10 10 10 10 10 10 10 10 10 10 10 10 9 9 9 9 9 9 9 9 9 10 10 10 10 10 10 10
11 11 11 11 11 10 10 10 10 10 10 10 10 9 9 9 9 9 9 9 9 9 9 9 9 9 9 9 9 9 9 9 9 9 9 9 9 9 9 9 9 9 9
11 11 11 10 10 10 10 10 10 10 10 9 9 9 9 9 9 9 9 9 9 9 9 9 9 9 9 8 8 8 8 8 8 8 8 8 8 8 8 8 9 9 9
10 10 10 10 10 10 10 9 9 9 9 9 9 9 9 8 8 8 8 8 8 8 8 8 8 8 8 8 8 8 8 8 8 7 7 7 8 8 8 8 8 8 8
10 10 10 10 10 9 9 9 9 9 9 8 8 8 8 8 8 8 8 8 8 8 8 7 7 7 7 7 8 7 7 7 7 7 7 7 7 7 7 7 7 7 7
10 10 9 9 9 9 9 9 9 8 8 8 8 8 7 7 7 7 7 7 7 7 7 7 7 7 7 7 7 7 7 7 7 6 6 6 6 6 6 6 6 6 6
9 9 9 9 9 9 9 9 8 8 8 8 8 7 7 7 6 6 6 6 6 6 6 6 6 6 6 6 6 6 6 6 6 6 6 5 5 5 5 5 5 5 6
9 9 9 9 8 8 8 8 8 8 8 7 7 7 7 6 6 5 5 6 6 6 6 6 6 6 6 5 5 5 5 5 5 5 5 5 5 5 5 5 5 5 5
8 8 8 8 8 8 8 8 8 7 7 7 7 7 6 6 6 5 5 5 5 5 5 5 5 5 5 5 5 5 5 5 5 5 5 4 4 4 4 4 4 4 4
8 8 8 8 8 8 7 7 7 7 7 6 6 6 6 6 5 5 4 4 4 4 4 5 5 4 4 4 4 4 4 4 4 4 4 4 4 4 4 4 4 4 4
7 7 7 7 7 7 7 7 7 7 6 6 6 6 5 5 5 5 4 4 3 3 4 4 4 4 4 4 4 3 3 3 3 3 3 3 3 3 3 3 3 3 3
7 7 7 7 7 7 6 6 6 6 6 6 5 5 5 5 4 4 4 3 3 2 2 3 3 3 3 3 3 3 3 3 3 3 3 3 3 3 3 3 3 3 3
7 7 6 6 6 6 6 6 6 5 5 5 5 5 4 4 4 4 3 3 3 2 2 2 2 2 2 2 2 2 2 2 2 2 2 2 2 2 2 2 2 2 2
6 6 6 6 6 6 5 5 5 5 5 5 4 4 4 4 4 3 3 3 2 2 1 2 2 2 2 2 2 2 2 2 2 2 1 1 1 1 1 1 1 1 1
6 6 5 5 5 5 5 5 5 5 4 4 4 4 4 3 3 3 3 2 2 2 1 1 2 1 1 1 1 1 1 1 1 1 1 1 1 1 1 1 1 1 1
5 5 5 5 5 5 4 4 4 4 4 4 4 4 3 3 3 3 2 2 2 1 1 1 1 1 1 0 0 0 0 0 0 0 0 -0 -0 -0 -0 -0 0 0 -0
5 5 5 5 4 4 4 4 4 4 4 3 3 3 3 3 3 2 2 2 1 1 1 0 0 0 0 -0 -1 -1 -1 -1 -1 -1 -1 -1 -1 -1 -1 -1 -1 -1 -1
5 4 4 4 4 4 4 4 4 3 3 3 3 3 3 2 2 2 2 1 1 0 0 -0 -0 -1 -1 -1 -1 -1 -2 -2 -1 -1 -1 -1 -1 -1 -1 -2 -2 -1 -1
4 4 4 4 4 4 3 3 3 3 3 3 3 3 2 2 2 1 1 1 0 -0 -0 -1 -1 -1 -1 -1 -2 -2 -2 -2 -2 -2 -2 -2 -2 -2 -2 -2 -2 -2 -2
4 4 3 3 3 3 3 3 3 2 2 2 2 2 2 1 1 1 1 0 -0 -1 -1 -1 -2 -1 -2 -2 -2 -3 -3 -3 -3 -3 -3 -3 -3 -3 -3 -3 -3 -3 -3
3 3 3 3 3 3 3 2 2 2 2 2 1 1 1 1 0 -0 -0 -1 -1 -1 -1 -2 -2 -2 -2 -3 -3 -3 -3 -4 -3 -4 -4 -4 -3 -3 -3 -3 -3 -3 -3
3 3 2 2 2 2 2 2 1 1 1 1 1 0 -0 -0 -0 -1 -1 -1 -1 -1 -2 -2 -2 -3 -3 -3 -3 -4 -4 -4 -4 -4 -4 -4 -4 -4 -4 -3 -3 -3 -4
2 2 2 2 2 2 1 1 1 0 0 0 -0 -0 -1 -1 -1 -2 -2 -2 -2 -2 -2 -3 -3 -3 -3 -3 -4 -4 -4 -4 -5 -5 -5 -5 -5 -5 -5 -4 -4 -4 -4
Wind_Speed
2 3 3 4 4 5 5 5 5 5 5 6 6 6 6 6 6 7 7 9 10 10 11 11 11 11 11 11 11 11 11 10 10 10 10 10 10 10 9 8 7 8 8
3 3 3 4 4 5 5 5 5 4 3 4 4 5 6 6 7 7 7 7 9 10 10 11 11 11 11 11 11 11 12 11 11 10 10 10 10 11 11 10 8 8 7
5 4 3 2 4 5 5 5 5 4 3 3 3 4 4 5 6 7 7 7 6 8 9 10 10 11 11 11 11 11 11 12 12 11 11 11 11 11 11 11 11 8 7
5 4 2 2 4 5 4 2 2 3 3 3 3 3 2 3 4 5 6 7 7 7 7 8 9 10 11 11 11 11 11 11 11 11 11 11 12 11 11 11 11 10 8
4 4 3 3 4 3 3 2 3 3 3 3 3 1 1 2 2 3 4 5 6 7 7 6 7 9 10 10 11 11 11 10 10 11 11 11 11 12 12 11 11 11 10
4 3 2 3 4 2 2 2 2 2 2 2 3 2 1 1 0 1 2 3 5 5 6 6 6 6 8 9 10 11 11 11 10 11 11 11 12 12 12 12 11 11 11
3 3 2 2 3 2 2 2 2 2 2 2 2 2 2 1 2 1 2 2 3 3 4 5 5 5 6 8 9 10 11 11 11 11 10 11 11 12 12 12 12 12 12
2 1 2 1 2 2 2 2 2 2 2 2 2 2 2 2 1 1 1 1 1 2 2 2 3 4 5 5 7 9 10 11 11 11 11 11 11 11 12 12 12 12 12
2 2 2 1 1 1 1 1 1 1 1 2 1 1 1 1 2 1 2 1 1 0 0 0 1 2 3 4 5 7 9 10 11 11 11 11 11 12 12 12 12 12 12
1 1 0 1 1 0 0 1 1 1 0 1 1 0 1 1 1 3 2 1 1 1 1 1 0 0 2 3 4 6 8 9 10 11 11 11 12 12 12 12 12 12 13
2 2 1 1 1 1 1 1 1 1 1 1 1 1 2 1 2 2 3 3 2 2 2 1 1 1 1 2 3 5 7 9 10 11 11 12 12 12 12 12 12 12 13
2 3 2 1 1 1 1 1 1 2 2 2 1 1 1 1 2 2 3 3 4 3 2 2 2 2 2 3 4 5 7 9 10 11 11 12 12 12 12 12 12 13 13
1 2 2 2 2 2 2 1 2 2 2 2 2 2 2 2 2 2 3 4 4 3 3 2 2 2 3 3 4 5 6 8 9 11 12 12 12 12 12 12 12 13 13
1 1 1 1 2 2 2 2 2 3 2 3 3 3 2 3 2 2 3 3 4 4 3 4 2 2 2 3 5 5 6 8 9 10 11 12 12 12 12 12 13 13 13
1 1 1 2 2 2 2 2 2 3 3 3 3 3 3 3 3 3 3 3 3 4 4 3 2 2 2 4 5 5 6 8 10 11 11 11 12 12 12 12 12 12 12
1 2 2 2 2 2 3 3 3 3 3 4 3 4 4 3 3 3 3 3 4 5 6 3 3 3 3 4 6 6 7 9 11 12 12 12 12 12 12 12 12 12 12
2 2 3 3 3 3 3 3 4 4 4 4 4 4 5 4 4 3 3 3 4 4 8 7 4 4 3 4 5 6 8 8 8 11 12 13 13 13 12 12 12 12 12
2 3 3 3 3 4 4 4 5 5 5 5 5 5 6 5 5 4 4 5 5 5 6 9 6 4 5 5 4 5 6 7 8 11 12 13 13 13 12 12 12 12 12
2 3 3 4 4 4 4 5 5 5 5 5 5 6 6 5 6 5 5 5 5 6 5 7 7 4 4 4 4 5 5 5 8 11 12 13 13 13 13 12 12 12 11
3 3 4 4 4 4 5 5 4 5 5 5 5 6 6 6 7 6 6 6 5 5 5 6 7 6 5 5 3 4 5 4 5 7 9 11 12 12 13 12 12 11 11
3 4 4 4 4 4 4 5 4 5 5 6 6 6 7 8 10 9 7 6 5 5 5 6 7 6 6 4 4 4 5 5 5 4 4 5 6 6 8 10 11 11 12
3 3 4 5 5 5 7 9 7 5 5 6 7 7 7 8 11 14 15 14 11 9 7 7 7 8 8 6 5 5 4 5 6 3 3 5 4 5 5 7 10 12 12
4 4 5 5 5 6 9 11 10 6 6 7 7 7 8 8 10 7 11 14 14 17 16 11 10 10 8 6 5 5 5 6 7 4 3 6 4 6 5 9 13 13 13
4 4 5 5 5 7 11 11 11 7 6 7 7 8 8 8 8 8 7 8 8 9 12 10 9 10 8 6 6 7 7 7 7 5 3 6 4 5 6 7 12 12 12
4 5 5 5 6 8 11 12 12 5 6 7 7 7 8 8 13 14 9 8 9 8 12 15 15 14 15 14 10 5 4 5 7 5 3 4 4 4 4 5 8 10 11
5 5 5 6 7 8 11 12 11 5 6 6 6 7 11 12 14 14 9 8 9 9 7 8 10 12 10 11 13 7 5 6 6 5 3 3 3 2 4 3 3 4 6
Wind_Direction
40 30 53 44 36 22 12 354 1 12 16 22 26 26 27 28 40 57 58 49 41 33 27 24 22 21 21 24 26 27 27 25 23 20 15 8 5 360 345 327 310 299 290
37 31 41 39 27 20 8 2 14 12 12 21 25 29 28 25 34 41 51 50 46 40 35 30 26 24 25 26 27 28 26 22 19 16 14 10 6 2 357 348 333 317 307
34 36 41 34 20 16 13 13 12 11 13 21 29 32 33 30 35 38 44 49 48 45 43 38 34 30 26 25 25 25 26 22 19 15 11 8 4 0 356 353 349 335 320
34 36 37 27 20 21 14 14 20 16 15 15 14 11 27 34 37 40 46 50 52 52 49 44 39 33 29 26 24 22 21 18 14 10 8 6 3 359 353 349 346 341 329
38 45 40 23 21 27 18 14 25 22 15 2 341 350 17 23 29 43 53 56 53 51 47 42 38 33 29 26 21 17 14 12 8 3 1 359 355 352 349 345 342 338 333
43 38 47 30 20 30 24 23 16 18 10 343 329 320 269 210 112 62 63 65 62 54 46 39 35 28 27 25 20 14 9 4 3 360 357 356 353 350 346 342 339 337 333
56 39 31 39 26 33 21 18 17 6 6 358 350 324 289 210 163 135 89 72 64 58 50 40 29 24 20 21 15 10 5 1 356 354 352 349 349 348 348 349 347 342 336
74 53 47 48 41 25 14 17 18 1 350 26 20 345 341 341 320 175 133 126 72 52 50 28 22 25 25 21 10 6 2 357 352 347 345 343 343 342 341 342 343 346 349
89 66 30 36 39 41 16 0 4 10 336 334 59 71 21 304 324 290 221 170 157 235 285 331 34 20 7 11 8 1 358 353 348 345 344 345 345 344 343 341 341 343 345
122 116 28 3 5 15 327 302 10 338 319 293 315 316 196 192 281 312 303 276 247 246 255 296 39 347 342 350 353 350 347 343 341 340 340 340 341 341 339 339 340 339 339
167 167 206 226 233 225 227 278 312 304 273 259 284 305 303 288 239 237 279 297 309 280 259 238 206 219 275 307 318 331 333 333 332 332 332 333 334 335 336 337 336 335 334
174 177 196 218 225 219 218 230 238 266 262 260 263 266 255 256 273 263 271 289 292 285 277 246 216 211 240 272 289 315 322 325 325 325 325 326 329 330 330 331 331 330 329
186 191 183 207 226 225 223 217 223 248 255 250 249 253 252 248 254 269 273 285 291 285 271 258 219 204 239 253 275 300 309 313 315 316 317 320 323 324 324 325 325 325 324
200 173 181 221 238 240 232 215 226 236 241 247 258 259 258 263 259 245 243 269 294 290 266 264 258 204 231 250 262 279 291 300 304 306 308 312 316 317 318 318 319 320 321
197 182 188 230 244 246 235 220 227 235 234 235 241 247 250 257 256 251 239 220 239 281 285 264 273 267 272 265 269 271 277 289 297 298 301 304 306 308 309 310 312 314 316
198 210 213 230 239 238 230 229 237 239 238 242 233 236 244 246 246 243 236 236 227 242 268 267 268 276 278 278 273 269 271 284 290 292 295 296 298 301 303 304 307 308 309
220 234 231 236 242 246 241 230 233 235 238 247 248 241 246 243 243 245 239 237 238 238 262 275 266 272 275 276 284 274 271 270 278 284 290 291 292 294 295 297 300 302 304
227 235 240 242 242 244 241 235 239 240 238 242 246 246 249 249 245 243 240 241 242 239 250 270 278 271 267 268 270 274 281 276 271 279 285 287 288 289 292 294 296 298 299
234 240 245 248 247 248 245 243 239 243 244 243 244 245 248 245 250 246 243 245 247 253 247 259 272 270 268 269 276 278 277 280 277 281 283 283 286 289 291 291 293 294 294
235 239 242 247 248 251 248 248 244 246 250 251 249 248 248 243 247 249 251 249 247 252 253 258 267 273 270 267 265 272 283 275 278 285 280 283 288 288 289 290 292 292 291
239 241 246 250 249 250 248 247 249 251 253 259 260 256 254 250 249 253 256 250 245 249 254 258 265 272 269 266 264 263 274 283 279 269 271 280 288 285 282 281 283 286 288
246 248 252 254 255 260 262 266 265 256 255 258 264 263 261 258 258 262 262 260 252 248 248 253 260 260 265 259 259 262 270 284 285 272 270 277 268 268 269 263 276 284 287
246 252 252 252 255 258 266 271 270 265 255 257 258 262 269 265 267 258 263 265 262 258 253 249 252 256 260 254 253 262 262 265 267 265 276 276 267 268 269 274 280 282 282
245 249 252 252 255 260 268 273 275 269 258 257 257 257 261 264 262 263 259 260 257 259 257 253 250 254 253 249 241 248 254 266 270 262 243 266 270 268 278 280 277 276 280
254 254 256 256 259 266 270 274 277 262 259 262 262 262 263 264 270 274 269 264 268 266 267 262 256 256 258 260 258 253 252 266 274 270 228 245 269 281 279 272 273 273 281
250 256 261 256 254 260 270 276 277 260 262 268 269 265 270 273 276 278 269 262 267 269 266 268 265 263 259 259 258 243 232 251 266 271 234 228 256 287 296 284 280 287 291
Height
1534 1534 1534 1534 1534 1534 1534 1533 1533 1533 1532 1532 1531 1531 1531 1530 1529 1529 1528 1528 1527 1527 1526 1525 1525 1524 1524 1524 1523 1523 1522 1522 1521 1521 1521 1520 1520 1520 1520 1520 1520 1520 1520
1533 1533 1533 1533 1533 1533 1533 1533 1532 1532 1532 1531 1531 1530 1530 1529 1529 1528 1527 1526 1526 1525 1524 1524 1523 1523 1522 1522 1521 1521 1520 1519 1519 1518 1518 1518 1517 1517 1516 1516 1516 1516 1516
1532 1532 1533 1533 1533 1533 1532 1532 1532 1531 1531 1530 1530 1529 1529 1528 1528 1527 1526 1525 1525 1524 1523 1523 1522 1521 1521 1520 1520 1519 1518 1517 1517 1516 1515 1515 1514 1514 1513 1513 1512 1512 1512
1531 1531 1532 1532 1532 1532 1531 1531 1530 1530 1530 1529 1528 1528 1528 1527 1526 1526 1525 1525 1524 1523 1522 1521 1520 1520 1519 1518 1518 1517 1516 1515 1514 1514 1513 1512 1511 1511 1510 1510 1509 1509 1508
1530 1530 1530 1530 1530 1530 1530 1530 1529 1529 1528 1528 1527 1527 1526 1526 1525 1525 1524 1523 1523 1522 1521 1520 1519 1518 1517 1517 1516 1515 1514 1513 1512 1511 1510 1509 1509 1508 1507 1506 1506 1505 1505
1528 1529 1529 1529 1529 1529 1528 1528 1528 1527 1527 1526 1526 1525 1525 1524 1524 1523 1523 1522 1521 1520 1519 1518 1518 1517 1516 1515 1514 1513 1512 1511 1510 1509 1508 1507 1506 1505 1504 1503 1502 1501 1501
1527 1527 1527 1527 1527 1527 1527 1527 1526 1526 1525 1525 1524 1523 1523 1523 1522 1522 1521 1520 1520 1519 1518 1517 1516 1515 1514 1513 1512 1511 1509 1508 1507 1506 1505 1504 1502 1502 1500 1499 1498 1497 1496
1525 1525 1525 1526 1526 1526 1525 1525 1525 1524 1524 1523 1523 1522 1521 1522 1521 1520 1520 1519 1518 1517 1516 1515 1514 1512 1511 1510 1509 1508 1507 1505 1504 1503 1501 1500 1499 1498 1497 1495 1494 1493 1492
1523 1523 1523 1524 1524 1524 1523 1523 1523 1523 1522 1522 1522 1522 1521 1520 1519 1518 1517 1517 1516 1515 1514 1512 1511 1510 1509 1507 1506 1505 1504 1502 1501 1499 1498 1497 1495 1494 1493 1492 1491 1489 1488
1520 1521 1521 1521 1522 1521 1521 1521 1521 1521 1520 1520 1520 1520 1520 1519 1518 1516 1515 1514 1513 1512 1511 1510 1508 1507 1506 1504 1503 1502 1501 1499 1497 1496 1495 1493 1492 1490 1489 1488 1487 1485 1484
1518 1518 1519 1519 1519 1519 1519 1519 1519 1518 1518 1518 1518 1517 1517 1516 1515 1514 1512 1511 1510 1509 1508 1507 1506 1504 1503 1501 1500 1498 1497 1496 1494 1493 1491 1490 1488 1486 1485 1484 1482 1481 1480
1515 1516 1516 1516 1516 1516 1516 1516 1516 1516 1515 1515 1515 1514 1514 1513 1512 1511 1509 1507 1506 1505 1504 1503 1502 1501 1500 1498 1497 1495 1494 1492 1490 1489 1487 1486 1484 1482 1481 1479 1478 1477 1475
1512 1513 1513 1513 1513 1513 1513 1513 1513 1513 1512 1512 1512 1511 1511 1510 1510 1508 1507 1504 1502 1501 1500 1499 1499 1497 1496 1495 1493 1491 1490 1488 1486 1485 1483 1482 1480 1478 1477 1475 1474 1472 1471
1509 1510 1510 1510 1510 1510 1510 1510 1510 1509 1509 1509 1508 1508 1507 1507 1506 1505 1504 1502 1499 1497 1495 1495 1495 1494 1492 1491 1489 1487 1486 1484 1482 1481 1479 1477 1475 1474 1472 1471 1469 1468 1466
1506 1506 1506 1507 1507 1506 1506 1506 1505 1505 1505 1505 1504 1504 1503 1502 1502 1501 1500 1499 1498 1494 1490 1490 1490 1489 1488 1486 1485 1483 1481 1480 1478 1476 1475 1473 1471 1469 1468 1466 1465 1463 1462
1503 1503 1503 1503 1503 1503 1502 1502 1502 1501 1501 1500 1500 1499 1498 1498 1497 1496 1495 1494 1493 1491 1487 1485 1485 1485 1483 1482 1480 1478 1476 1475 1473 1471 1470 1468 1466 1464 1463 1461 1460 1458 1457
1499 1499 1499 1499 1499 1499 1499 1498 1498 1497 1496 1496 1495 1494 1494 1493 1492 1491 1490 1489 1488 1487 1483 1479 1480 1479 1478 1477 1475 1473 1472 1470 1468 1467 1465 1463 1461 1460 1458 1456 1455 1453 1452
1496 1496 1495 1495 1495 1495 1494 1494 1493 1493 1492 1491 1490 1489 1489 1488 1487 1486 1485 1483 1482 1481 1479 1475 1474 1473 1473 1471 1469 1468 1466 1465 1463 1461 1460 1458 1456 1454 1453 1451 1450 1448 1447
1492 1492 1491 1491 1491 1491 1490 1490 1489 1488 1487 1486 1485 1484 1484 1482 1481 1480 1479 1478 1476 1475 1473 1471 1468 1467 1466 1465 1464 1462 1460 1459 1457 1456 1454 1453 1451 1449 1447 1446 1444 1443 1441
1488 1488 1487 1487 1487 1486 1486 1485 1484 1483 1482 1481 1480 1479 1478 1477 1475 1475 1473 1472 1471 1469 1468 1465 1463 1461 1460 1459 1458 1456 1454 1453 1451 1450 1449 1447 1446 1444 1442 1441 1439 1438 1436
1484 1484 1483 1483 1482 1482 1481 1480 1479 1478 1477 1476 1475 1474 1473 1471 1470 1469 1467 1466 1465 1463 1461 1459 1457 1455 1454 1453 1452 1450 1448 1446 1445 1444 1442 1441 1440 1438 1437 1435 1434 1432 1431
1480 1480 1479 1479 1478 1478 1477 1476 1474 1473 1471 1470 1469 1467 1466 1465 1464 1463 1461 1460 1459 1457 1455 1453 1451 1449 1448 1447 1446 1445 1443 1441 1438 1439 1437 1435 1434 1432 1431 1430 1429 1427 1425
1476 1476 1475 1474 1473 1473 1472 1471 1469 1468 1466 1464 1463 1461 1460 1459 1457 1456 1454 1453 1451 1450 1449 1448 1445 1443 1442 1441 1441 1439 1437 1436 1433 1433 1431 1428 1428 1426 1425 1424 1423 1422 1420
1472 1471 1471 1470 1469 1468 1467 1465 1464 1462 1460 1458 1457 1455 1453 1451 1450 1449 1447 1445 1443 1443 1442 1440 1438 1437 1436 1435 1435 1433 1432 1430 1428 1427 1426 1423 1421 1420 1419 1418 1417 1416 1415
1467 1467 1466 1464 1463 1462 1461 1459 1458 1455 1453 1451 1450 1448 1446 1444 1443 1442 1440 1438 1436 1435 1434 1433 1432 1431 1430 1429 1428 1427 1426 1424 1421 1420 1420 1418 1415 1414 1413 1412 1411 1410 1409
1463 1462 1460 1459 1458 1456 1455 1453 1452 1449 1447 1445 1443 1441 1440 1438 1436 1435 1433 1431 1429 1427 1427 1425 1424 1423 1423 1422 1421 1421 1420 1418 1416 1414 1413 1413 1410 1409 1407 1405 1405 1405 1404